Tracking 19164 objects as of 21-May-2018
HD Live streaming from Space Station
objects crossing your sky now

SICRAL 1

Track SICRAL 1 now!
SICRAL 1 is classified as:


NORAD ID: 26694
Int'l Code: 2001-005A
Perigee: 35,762.1 km
Apogee: 35,826.4 km
Inclination: 7.8 °
Period: 1,436.1 minutes
Semi major axis: 42165 km
RCS: 26.3777 m2 (large)
Launch date: February 7, 2001
Source: Italy (IT)
Launch site: FRENCH GUIANA (FRGUI)
aabbcc
Your satellite tracking list
Your tracking list is empty




NASA's NSSDC Master Catalog

Two Line Element Set (TLE):
1 26694U 01005A   18108.51446095 0.00000000  00000-0  00000-0 0    08
2 26694   7.7568  48.2519 0007628 267.9626  91.9567  1.00270000    09
Source of the keplerian elements: McCants